Year,Month,Day,Hour,Minute,Value (Times are PST for insolation in W/m^2)
2017,03,19,00,00,0.00
2017,03,19,00,01,0.00
2017,03,19,00,02,0.00
2017,03,19,00,03,0.00
2017,03,19,00,04,0.00
2017,03,19,00,05,0.00
2017,03,19,00,06,0.00
2017,03,19,00,07,0.00
2017,03,19,00,08,0.00
2017,03,19,00,09,0.00
2017,03,19,00,10,0.00
2017,03,19,00,11,0.00
2017,03,19,00,12,0.00
2017,03,19,00,13,0.00
2017,03,19,00,14,0.00
2017,03,19,00,15,0.00
2017,03,19,00,16,0.00
2017,03,19,00,17,0.00
2017,03,19,00,18,0.00
2017,03,19,00,19,0.00
2017,03,19,00,20,0.00
2017,03,19,00,21,0.00
2017,03,19,00,22,0.00
2017,03,19,00,23,0.00
2017,03,19,00,24,0.00
2017,03,19,00,25,0.00
2017,03,19,00,26,0.00
2017,03,19,00,27,0.00
2017,03,19,00,28,0.00
2017,03,19,00,29,0.00
2017,03,19,00,30,0.00
2017,03,19,00,31,0.00
2017,03,19,00,32,0.00
2017,03,19,00,33,0.00
2017,03,19,00,34,0.00
2017,03,19,00,35,0.00
2017,03,19,00,36,0.00
2017,03,19,00,37,0.00
2017,03,19,00,38,0.00
2017,03,19,00,39,0.00
2017,03,19,00,40,0.00
2017,03,19,00,41,0.00
2017,03,19,00,42,0.00
2017,03,19,00,43,0.00
2017,03,19,00,44,0.00
2017,03,19,00,45,0.00
2017,03,19,00,46,0.00
2017,03,19,00,47,0.00
2017,03,19,00,48,0.00
2017,03,19,00,49,0.00
2017,03,19,00,50,0.00
2017,03,19,00,51,0.00
2017,03,19,00,52,0.00
2017,03,19,00,53,0.00
2017,03,19,00,54,0.00
2017,03,19,00,55,0.00
2017,03,19,00,56,0.00
2017,03,19,00,57,0.00
2017,03,19,00,58,0.00
2017,03,19,00,59,0.00
2017,03,19,01,00,0.00
2017,03,19,01,01,0.00
2017,03,19,01,02,0.00
2017,03,19,01,03,0.00
2017,03,19,01,04,0.00
2017,03,19,01,05,0.00
2017,03,19,01,06,0.00
2017,03,19,01,07,0.00
2017,03,19,01,08,0.00
2017,03,19,01,09,0.00
2017,03,19,01,10,0.00
2017,03,19,01,11,0.00
2017,03,19,01,12,0.00
2017,03,19,01,13,0.00
2017,03,19,01,14,0.00
2017,03,19,01,15,0.00
2017,03,19,01,16,0.00
2017,03,19,01,17,0.00
2017,03,19,01,18,0.00
2017,03,19,01,19,0.00
2017,03,19,01,20,0.00
2017,03,19,01,21,0.00
2017,03,19,01,22,0.00
2017,03,19,01,23,0.00
2017,03,19,01,24,0.00
2017,03,19,01,25,0.00
2017,03,19,01,26,0.00
2017,03,19,01,27,0.00
2017,03,19,01,28,0.00
2017,03,19,01,29,0.00
2017,03,19,01,30,0.00
2017,03,19,01,31,0.00
2017,03,19,01,32,0.00
2017,03,19,01,33,0.00
2017,03,19,01,34,0.00
2017,03,19,01,35,0.00
2017,03,19,01,36,0.00
2017,03,19,01,37,0.00
2017,03,19,01,38,0.00
2017,03,19,01,39,0.00
2017,03,19,01,40,0.00
2017,03,19,01,41,0.00
2017,03,19,01,42,0.00
2017,03,19,01,43,0.00
2017,03,19,01,44,0.00
2017,03,19,01,45,0.00
2017,03,19,01,46,0.00
2017,03,19,01,47,0.00
2017,03,19,01,48,0.00
2017,03,19,01,49,0.00
2017,03,19,01,50,0.00
2017,03,19,01,51,0.00
2017,03,19,01,52,0.00
2017,03,19,01,53,0.00
2017,03,19,01,54,0.00
2017,03,19,01,55,0.00
2017,03,19,01,56,0.00
2017,03,19,01,57,0.00
2017,03,19,01,58,0.00
2017,03,19,01,59,0.00
2017,03,19,02,00,0.00
2017,03,19,02,01,0.00
2017,03,19,02,02,0.00
2017,03,19,02,03,0.00
2017,03,19,02,04,0.00
2017,03,19,02,05,0.00
2017,03,19,02,06,0.00
2017,03,19,02,07,0.00
2017,03,19,02,08,0.00
2017,03,19,02,09,0.00
2017,03,19,02,10,0.00
2017,03,19,02,11,0.00
2017,03,19,02,12,0.00
2017,03,19,02,13,0.00
2017,03,19,02,14,0.00
2017,03,19,02,15,0.00
2017,03,19,02,16,0.00
2017,03,19,02,17,0.00
2017,03,19,02,18,0.00
2017,03,19,02,19,0.00
2017,03,19,02,20,0.00
2017,03,19,02,21,0.00
2017,03,19,02,22,0.00
2017,03,19,02,23,0.00
2017,03,19,02,24,0.00
2017,03,19,02,25,0.00
2017,03,19,02,26,0.00
2017,03,19,02,27,0.00
2017,03,19,02,28,0.00
2017,03,19,02,29,0.00
2017,03,19,02,30,0.00
2017,03,19,02,31,0.00
2017,03,19,02,32,0.00
2017,03,19,02,33,0.00
2017,03,19,02,34,0.00
2017,03,19,02,35,0.00
2017,03,19,02,36,0.00
2017,03,19,02,37,0.00
2017,03,19,02,38,0.00
2017,03,19,02,39,0.00
2017,03,19,02,40,0.00
2017,03,19,02,41,0.00
2017,03,19,02,42,0.00
2017,03,19,02,43,0.00
2017,03,19,02,44,0.00
2017,03,19,02,45,0.00
2017,03,19,02,46,0.00
2017,03,19,02,47,0.00
2017,03,19,02,48,0.00
2017,03,19,02,49,0.00
2017,03,19,02,50,0.00
2017,03,19,02,51,0.00
2017,03,19,02,52,0.00
2017,03,19,02,53,0.00
2017,03,19,02,54,0.00
2017,03,19,02,55,0.00
2017,03,19,02,56,0.00
2017,03,19,02,57,0.00
2017,03,19,02,58,0.00
2017,03,19,02,59,0.00
2017,03,19,03,00,0.00
2017,03,19,03,01,0.00
2017,03,19,03,02,0.00
2017,03,19,03,03,0.00
2017,03,19,03,04,0.00
2017,03,19,03,05,0.00
2017,03,19,03,06,0.00
2017,03,19,03,07,0.00
2017,03,19,03,08,0.00
2017,03,19,03,09,0.00
2017,03,19,03,10,0.00
2017,03,19,03,11,0.00
2017,03,19,03,22,0.00
2017,03,19,03,23,0.00
2017,03,19,03,24,0.00
2017,03,19,03,25,0.00
2017,03,19,03,26,0.00
2017,03,19,03,27,0.00
2017,03,19,03,28,0.00
2017,03,19,03,29,0.00
2017,03,19,03,30,0.00
2017,03,19,03,31,0.00
2017,03,19,03,32,0.00
2017,03,19,03,33,0.00
2017,03,19,03,34,0.00
2017,03,19,03,35,0.00
2017,03,19,03,36,0.00
2017,03,19,03,37,0.00
2017,03,19,03,38,0.00
2017,03,19,03,39,0.00
2017,03,19,03,40,0.00
2017,03,19,03,41,0.00
2017,03,19,03,42,0.00
2017,03,19,03,43,0.00
2017,03,19,03,44,0.00
2017,03,19,03,45,0.00
2017,03,19,03,46,0.00
2017,03,19,03,47,0.00
2017,03,19,03,48,0.00
2017,03,19,03,49,0.00
2017,03,19,03,50,0.00
2017,03,19,03,51,0.00
2017,03,19,03,52,0.00
2017,03,19,03,53,0.00
2017,03,19,03,54,0.00
2017,03,19,03,55,0.00
2017,03,19,03,56,0.00
2017,03,19,03,57,0.00
2017,03,19,03,58,0.00
2017,03,19,03,59,0.00
2017,03,19,04,00,0.00
2017,03,19,04,01,0.00
2017,03,19,04,02,0.00
2017,03,19,04,03,0.00
2017,03,19,04,04,0.00
2017,03,19,04,05,0.00
2017,03,19,04,06,0.00
2017,03,19,04,07,0.00
2017,03,19,04,08,0.00
2017,03,19,04,09,0.00
2017,03,19,04,10,0.00
2017,03,19,04,11,0.00
2017,03,19,04,12,0.00
2017,03,19,04,13,0.00
2017,03,19,04,14,0.00
2017,03,19,04,15,0.00
2017,03,19,04,16,0.00
2017,03,19,04,17,0.00
2017,03,19,04,18,0.00
2017,03,19,04,19,0.00
2017,03,19,04,20,0.00
2017,03,19,04,21,0.00
2017,03,19,04,22,0.00
2017,03,19,04,23,0.00
2017,03,19,04,24,0.00
2017,03,19,04,25,0.00
2017,03,19,04,26,0.00
2017,03,19,04,27,0.00
2017,03,19,04,28,0.00
2017,03,19,04,29,0.00
2017,03,19,04,30,0.00
2017,03,19,04,31,0.00
2017,03,19,04,32,0.00
2017,03,19,04,33,0.00
2017,03,19,04,34,0.00
2017,03,19,04,35,0.00
2017,03,19,04,36,0.00
2017,03,19,04,37,0.00
2017,03,19,04,38,0.00
2017,03,19,04,39,0.00
2017,03,19,04,40,0.00
2017,03,19,04,41,0.00
2017,03,19,04,42,0.00
2017,03,19,04,43,0.00
2017,03,19,04,44,0.00
2017,03,19,04,45,0.00
2017,03,19,04,46,0.00
2017,03,19,04,47,0.00
2017,03,19,04,48,0.00
2017,03,19,04,49,0.00
2017,03,19,04,50,0.00
2017,03,19,04,51,0.00
2017,03,19,04,52,0.00
2017,03,19,04,53,0.00
2017,03,19,04,54,0.00
2017,03,19,04,55,0.00
2017,03,19,04,56,0.00
2017,03,19,04,57,0.00
2017,03,19,04,58,0.00
2017,03,19,04,59,0.00
2017,03,19,05,00,0.00
2017,03,19,05,01,0.00
2017,03,19,05,02,0.00
2017,03,19,05,03,0.00
2017,03,19,05,04,0.00
2017,03,19,05,05,0.00
2017,03,19,05,06,0.00
2017,03,19,05,07,0.00
2017,03,19,05,08,0.00
2017,03,19,05,09,0.00
2017,03,19,05,10,0.00
2017,03,19,05,11,0.00
2017,03,19,05,12,0.00
2017,03,19,05,13,0.00
2017,03,19,05,14,0.00
2017,03,19,05,15,0.00
2017,03,19,05,16,0.00
2017,03,19,05,17,0.00
2017,03,19,05,18,0.00
2017,03,19,05,19,0.00
2017,03,19,05,20,0.00
2017,03,19,05,21,0.00
2017,03,19,05,22,0.00
2017,03,19,05,23,0.00
2017,03,19,05,24,0.00
2017,03,19,05,25,0.00
2017,03,19,05,26,0.00
2017,03,19,05,27,0.00
2017,03,19,05,28,0.00
2017,03,19,05,29,0.00
2017,03,19,05,30,0.00
2017,03,19,05,31,0.00
2017,03,19,05,32,0.00
2017,03,19,05,33,0.00
2017,03,19,05,34,0.00
2017,03,19,05,35,0.00
2017,03,19,05,36,0.00
2017,03,19,05,37,0.00
2017,03,19,05,38,0.00
2017,03,19,05,39,0.00
2017,03,19,05,40,0.00
2017,03,19,05,41,0.00
2017,03,19,05,42,0.00
2017,03,19,05,43,0.00
2017,03,19,05,44,0.00
2017,03,19,05,45,0.00
2017,03,19,05,46,0.00
2017,03,19,05,47,0.00
2017,03,19,05,48,0.00
2017,03,19,05,49,0.00
2017,03,19,05,50,0.00
2017,03,19,05,51,0.00
2017,03,19,05,52,0.00
2017,03,19,05,53,0.00
2017,03,19,05,54,0.00
2017,03,19,05,55,0.00
2017,03,19,05,56,0.00
2017,03,19,05,57,0.00
2017,03,19,05,58,0.00
2017,03,19,05,59,0.00
2017,03,19,06,00,0.00
2017,03,19,06,01,0.00
2017,03,19,06,02,0.00
2017,03,19,06,03,0.00
2017,03,19,06,04,0.00
2017,03,19,06,05,0.00
2017,03,19,06,06,0.00
2017,03,19,06,07,0.00
2017,03,19,06,08,0.00
2017,03,19,06,09,0.00
2017,03,19,06,10,0.00
2017,03,19,06,11,0.00
2017,03,19,06,12,0.00
2017,03,19,06,13,0.00
2017,03,19,06,14,0.00
2017,03,19,06,15,0.00
2017,03,19,06,16,0.00
2017,03,19,06,17,0.00
2017,03,19,06,18,0.00
2017,03,19,06,19,0.00
2017,03,19,06,20,0.00
2017,03,19,06,21,0.00
2017,03,19,06,22,0.00
2017,03,19,06,23,0.00
2017,03,19,06,24,0.00
2017,03,19,06,25,0.00
2017,03,19,06,26,0.00
2017,03,19,06,27,0.00
2017,03,19,06,28,0.00
2017,03,19,06,29,0.00
2017,03,19,06,30,0.00
2017,03,19,06,31,0.00
2017,03,19,06,32,0.00
2017,03,19,06,33,0.00
2017,03,19,06,34,0.00
2017,03,19,06,35,0.00
2017,03,19,06,36,0.00
2017,03,19,06,37,0.00
2017,03,19,06,38,0.00
2017,03,19,06,39,0.00
2017,03,19,06,40,0.00
2017,03,19,06,41,0.00
2017,03,19,06,42,0.00
2017,03,19,06,43,0.00
2017,03,19,06,44,0.00
2017,03,19,06,45,0.00
2017,03,19,06,46,0.00
2017,03,19,06,47,0.00
2017,03,19,06,48,0.00
2017,03,19,06,49,0.00
2017,03,19,06,50,0.00
2017,03,19,06,51,0.00
2017,03,19,06,52,0.00
2017,03,19,06,53,0.00
2017,03,19,06,54,0.00
2017,03,19,06,55,0.00
2017,03,19,06,56,0.00
2017,03,19,06,57,0.00
2017,03,19,06,58,0.00
2017,03,19,06,59,0.00
2017,03,19,07,00,0.00
2017,03,19,07,01,0.00
2017,03,19,07,02,0.00
2017,03,19,07,03,0.00
2017,03,19,07,04,0.00
2017,03,19,07,05,0.00
2017,03,19,07,06,0.00
2017,03,19,07,07,0.00
2017,03,19,07,08,0.00
2017,03,19,07,09,0.00
2017,03,19,07,10,0.00
2017,03,19,07,11,0.00
2017,03,19,07,12,0.00
2017,03,19,07,13,0.00
2017,03,19,07,14,0.00
2017,03,19,07,15,0.00
2017,03,19,07,16,0.00
2017,03,19,07,17,0.00
2017,03,19,07,18,0.00
2017,03,19,07,19,0.00
2017,03,19,07,20,0.00
2017,03,19,07,21,0.00
2017,03,19,07,22,0.00
2017,03,19,07,23,0.00
2017,03,19,07,24,0.00
2017,03,19,07,25,0.00
2017,03,19,07,26,0.00
2017,03,19,07,27,0.00
2017,03,19,07,28,0.00
2017,03,19,07,29,0.00
2017,03,19,07,30,0.00
2017,03,19,07,31,0.00
2017,03,19,07,32,0.00
2017,03,19,07,33,0.00
2017,03,19,07,34,0.00
2017,03,19,07,35,0.00
2017,03,19,07,36,0.00
2017,03,19,07,37,0.00
2017,03,19,07,38,0.00
2017,03,19,07,39,0.00
2017,03,19,07,40,0.00
2017,03,19,07,41,0.00
2017,03,19,07,42,2.00
2017,03,19,07,43,2.00
2017,03,19,07,44,2.00
2017,03,19,07,45,2.00
2017,03,19,07,46,2.00
2017,03,19,07,47,2.00
2017,03,19,07,48,2.00
2017,03,19,07,49,2.00
2017,03,19,07,50,2.00
2017,03,19,07,51,8.00
2017,03,19,07,52,8.00
2017,03,19,07,53,8.00
2017,03,19,07,54,8.00
2017,03,19,07,55,8.00
2017,03,19,07,56,8.00
2017,03,19,07,57,8.00
2017,03,19,07,58,8.00
2017,03,19,07,59,8.00
2017,03,19,08,00,8.00
2017,03,19,08,01,8.00
2017,03,19,08,02,12.00
2017,03,19,08,03,12.00
2017,03,19,08,04,12.00
2017,03,19,08,05,12.00
2017,03,19,08,06,12.00
2017,03,19,08,07,12.00
2017,03,19,08,08,12.00
2017,03,19,08,09,12.00
2017,03,19,08,10,12.00
2017,03,19,08,11,16.00
2017,03,19,08,12,16.00
2017,03,19,08,13,16.00
2017,03,19,08,14,16.00
2017,03,19,08,15,16.00
2017,03,19,08,16,16.00
2017,03,19,08,17,16.00
2017,03,19,08,18,16.00
2017,03,19,08,19,16.00
2017,03,19,08,20,16.00
2017,03,19,08,21,16.00
2017,03,19,08,22,19.00
2017,03,19,08,23,19.00
2017,03,19,08,24,19.00
2017,03,19,08,25,19.00
2017,03,19,08,26,19.00
2017,03,19,08,27,19.00
2017,03,19,08,28,19.00
2017,03,19,08,29,19.00
2017,03,19,08,30,19.00
2017,03,19,08,31,23.00
2017,03,19,08,32,23.00
2017,03,19,08,33,23.00
2017,03,19,08,34,23.00
2017,03,19,08,35,23.00
2017,03,19,08,36,23.00
2017,03,19,08,37,23.00
2017,03,19,08,38,23.00
2017,03,19,08,39,23.00
2017,03,19,08,40,23.00
2017,03,19,08,41,26.00
2017,03,19,08,42,26.00
2017,03,19,08,43,26.00
2017,03,19,08,44,26.00
2017,03,19,08,45,26.00
2017,03,19,08,46,26.00
2017,03,19,08,47,26.00
2017,03,19,08,48,26.00
2017,03,19,08,49,26.00
2017,03,19,08,50,26.00
2017,03,19,08,51,26.00
2017,03,19,08,52,29.00
2017,03,19,08,53,29.00
2017,03,19,08,54,29.00
2017,03,19,08,55,29.00
2017,03,19,08,56,29.00
2017,03,19,08,57,29.00
2017,03,19,08,58,29.00
2017,03,19,08,59,29.00
2017,03,19,09,00,29.00
2017,03,19,09,01,30.00
2017,03,19,09,02,30.00
2017,03,19,09,03,30.00
2017,03,19,09,04,30.00
2017,03,19,09,05,30.00
2017,03,19,09,06,30.00
2017,03,19,09,07,30.00
2017,03,19,09,08,30.00
2017,03,19,09,09,30.00
2017,03,19,09,10,30.00
2017,03,19,09,11,30.00
2017,03,19,09,12,33.00
2017,03,19,09,13,33.00
2017,03,19,09,14,33.00
2017,03,19,09,15,33.00
2017,03,19,09,16,33.00
2017,03,19,09,17,33.00
2017,03,19,09,18,33.00
2017,03,19,09,19,33.00
2017,03,19,09,20,33.00
2017,03,19,09,21,40.00
2017,03,19,09,22,40.00
2017,03,19,09,23,40.00
2017,03,19,09,24,40.00
2017,03,19,09,25,40.00
2017,03,19,09,26,40.00
2017,03,19,09,27,40.00
2017,03,19,09,28,40.00
2017,03,19,09,29,40.00
2017,03,19,09,30,40.00
2017,03,19,09,31,40.00
2017,03,19,09,32,110.00
2017,03,19,09,33,110.00
2017,03,19,09,34,110.00
2017,03,19,09,35,110.00
2017,03,19,09,36,110.00
2017,03,19,09,37,110.00
2017,03,19,09,38,110.00
2017,03,19,09,39,110.00
2017,03,19,09,40,110.00
2017,03,19,09,41,145.00
2017,03,19,09,42,145.00
2017,03,19,09,43,145.00
2017,03,19,09,44,145.00
2017,03,19,09,45,145.00
2017,03,19,09,46,145.00
2017,03,19,09,47,145.00
2017,03,19,09,48,145.00
2017,03,19,09,49,145.00
2017,03,19,09,50,145.00
2017,03,19,09,51,38.00
2017,03,19,09,52,38.00
2017,03,19,09,53,38.00
2017,03,19,09,54,38.00
2017,03,19,09,55,38.00
2017,03,19,09,56,38.00
2017,03,19,09,57,38.00
2017,03,19,09,58,38.00
2017,03,19,09,59,38.00
2017,03,19,10,00,38.00
2017,03,19,10,01,40.00
2017,03,19,10,02,40.00
2017,03,19,10,03,40.00
2017,03,19,10,04,40.00
2017,03,19,10,05,40.00
2017,03,19,10,06,40.00
2017,03,19,10,07,40.00
2017,03,19,10,08,40.00
2017,03,19,10,09,40.00
2017,03,19,10,10,40.00
2017,03,19,10,11,40.00
2017,03,19,10,12,40.00
2017,03,19,10,13,40.00
2017,03,19,10,14,40.00
2017,03,19,10,15,40.00
2017,03,19,10,16,40.00
2017,03,19,10,17,40.00
2017,03,19,10,18,40.00
2017,03,19,10,19,40.00
2017,03,19,10,20,40.00
2017,03,19,10,21,155.00
2017,03,19,10,22,155.00
2017,03,19,10,23,155.00
2017,03,19,10,24,155.00
2017,03,19,10,25,155.00
2017,03,19,10,26,155.00
2017,03,19,10,27,155.00
2017,03,19,10,28,155.00
2017,03,19,10,29,155.00
2017,03,19,10,30,155.00
2017,03,19,10,31,306.00
2017,03,19,10,32,306.00
2017,03,19,10,33,306.00
2017,03,19,10,34,306.00
2017,03,19,10,35,306.00
2017,03,19,10,36,306.00
2017,03,19,10,37,306.00
2017,03,19,10,38,306.00
2017,03,19,10,39,306.00
2017,03,19,10,40,306.00
2017,03,19,10,41,369.00
2017,03,19,10,42,369.00
2017,03,19,10,43,369.00
2017,03,19,10,44,369.00
2017,03,19,10,45,369.00
2017,03,19,10,46,369.00
2017,03,19,10,47,369.00
2017,03,19,10,48,369.00
2017,03,19,10,49,369.00
2017,03,19,10,50,369.00
2017,03,19,10,51,350.00
2017,03,19,10,52,350.00
2017,03,19,10,53,350.00
2017,03,19,10,54,350.00
2017,03,19,10,55,350.00
2017,03,19,10,56,350.00
2017,03,19,10,57,350.00
2017,03,19,10,58,350.00
2017,03,19,10,59,350.00
2017,03,19,11,00,350.00
2017,03,19,11,01,512.00
2017,03,19,11,02,512.00
2017,03,19,11,03,512.00
2017,03,19,11,04,512.00
2017,03,19,11,05,512.00
2017,03,19,11,06,512.00
2017,03,19,11,07,512.00
2017,03,19,11,08,512.00
2017,03,19,11,09,512.00
2017,03,19,11,10,512.00
2017,03,19,11,11,512.00
2017,03,19,11,12,550.00
2017,03,19,11,13,550.00
2017,03,19,11,14,550.00
2017,03,19,11,15,550.00
2017,03,19,11,16,550.00
2017,03,19,11,17,550.00
2017,03,19,11,18,550.00
2017,03,19,11,19,550.00
2017,03,19,11,20,550.00
2017,03,19,11,21,550.00
2017,03,19,11,22,234.00
2017,03,19,11,23,234.00
2017,03,19,11,24,234.00
2017,03,19,11,25,234.00
2017,03,19,11,26,234.00
2017,03,19,11,27,234.00
2017,03,19,11,28,234.00
2017,03,19,11,29,234.00
2017,03,19,11,30,234.00
2017,03,19,11,31,505.00
2017,03,19,11,32,505.00
2017,03,19,11,33,505.00
2017,03,19,11,34,505.00
2017,03,19,11,35,505.00
2017,03,19,11,36,505.00
2017,03,19,11,37,505.00
2017,03,19,11,38,505.00
2017,03,19,11,39,505.00
2017,03,19,11,40,505.00
2017,03,19,11,51,645.00
2017,03,19,11,52,645.00
2017,03,19,11,53,645.00
2017,03,19,11,54,645.00
2017,03,19,11,55,645.00
2017,03,19,11,56,645.00
2017,03,19,11,57,645.00
2017,03,19,11,58,645.00
2017,03,19,11,59,645.00
2017,03,19,12,00,645.00
2017,03,19,12,01,645.00
2017,03,19,12,02,515.00
2017,03,19,12,03,515.00
2017,03,19,12,04,515.00
2017,03,19,12,05,515.00
2017,03,19,12,06,515.00
2017,03,19,12,07,515.00
2017,03,19,12,08,515.00
2017,03,19,12,09,515.00
2017,03,19,12,10,515.00
2017,03,19,12,11,391.00
2017,03,19,12,12,391.00
2017,03,19,12,13,391.00
2017,03,19,12,14,391.00
2017,03,19,12,15,391.00
2017,03,19,12,16,391.00
2017,03,19,12,17,391.00
2017,03,19,12,18,391.00
2017,03,19,12,19,391.00
2017,03,19,12,20,391.00
2017,03,19,12,21,861.00
2017,03,19,12,22,861.00
2017,03,19,12,23,861.00
2017,03,19,12,24,861.00
2017,03,19,12,25,861.00
2017,03,19,12,26,861.00
2017,03,19,12,27,861.00
2017,03,19,12,28,861.00
2017,03,19,12,29,861.00
2017,03,19,12,30,861.00
2017,03,19,12,31,420.00
2017,03,19,12,32,420.00
2017,03,19,12,33,420.00
2017,03,19,12,34,420.00
2017,03,19,12,35,420.00
2017,03,19,12,36,420.00
2017,03,19,12,37,420.00
2017,03,19,12,38,420.00
2017,03,19,12,39,420.00
2017,03,19,12,40,420.00
2017,03,19,12,41,420.00
2017,03,19,12,52,415.00
2017,03,19,12,53,415.00
2017,03,19,12,54,415.00
2017,03,19,12,55,415.00
2017,03,19,12,56,415.00
2017,03,19,12,57,415.00
2017,03,19,12,58,415.00
2017,03,19,12,59,415.00
2017,03,19,13,00,415.00
2017,03,19,13,01,415.00
2017,03,19,13,02,1011.00
2017,03,19,13,03,1011.00
2017,03,19,13,04,1011.00
2017,03,19,13,05,1011.00
2017,03,19,13,06,1011.00
2017,03,19,13,07,1011.00
2017,03,19,13,08,1011.00
2017,03,19,13,09,1011.00
2017,03,19,13,10,1011.00
2017,03,19,13,11,1011.00
2017,03,19,13,12,894.00
2017,03,19,13,13,894.00
2017,03,19,13,14,894.00
2017,03,19,13,15,894.00
2017,03,19,13,16,894.00
2017,03,19,13,17,894.00
2017,03,19,13,18,894.00
2017,03,19,13,19,894.00
2017,03,19,13,20,894.00
2017,03,19,13,21,1155.00
2017,03,19,13,22,1155.00
2017,03,19,13,23,1155.00
2017,03,19,13,24,1155.00
2017,03,19,13,25,1155.00
2017,03,19,13,26,1155.00
2017,03,19,13,27,1155.00
2017,03,19,13,28,1155.00
2017,03,19,13,29,1155.00
2017,03,19,13,30,1155.00
2017,03,19,13,31,1155.00
2017,03,19,13,32,451.00
2017,03,19,13,33,451.00
2017,03,19,13,34,451.00
2017,03,19,13,35,451.00
2017,03,19,13,36,451.00
2017,03,19,13,37,451.00
2017,03,19,13,38,451.00
2017,03,19,13,39,451.00
2017,03,19,13,40,451.00
2017,03,19,13,41,451.00
2017,03,19,13,42,451.00
2017,03,19,13,43,451.00
2017,03,19,13,44,451.00
2017,03,19,13,45,451.00
2017,03,19,13,46,451.00
2017,03,19,13,47,451.00
2017,03,19,13,48,451.00
2017,03,19,13,49,451.00
2017,03,19,13,50,451.00
2017,03,19,13,51,308.00
2017,03,19,13,52,308.00
2017,03,19,13,53,308.00
2017,03,19,13,54,308.00
2017,03,19,13,55,308.00
2017,03,19,13,56,308.00
2017,03,19,13,57,308.00
2017,03,19,13,58,308.00
2017,03,19,13,59,308.00
2017,03,19,14,00,308.00
2017,03,19,14,01,308.00
2017,03,19,14,02,514.00
2017,03,19,14,03,514.00
2017,03,19,14,04,514.00
2017,03,19,14,05,514.00
2017,03,19,14,06,514.00
2017,03,19,14,07,514.00
2017,03,19,14,08,514.00
2017,03,19,14,09,514.00
2017,03,19,14,10,514.00
2017,03,19,14,11,753.00
2017,03,19,14,12,753.00
2017,03,19,14,13,753.00
2017,03,19,14,14,753.00
2017,03,19,14,15,753.00
2017,03,19,14,16,753.00
2017,03,19,14,17,753.00
2017,03,19,14,18,753.00
2017,03,19,14,19,753.00
2017,03,19,14,20,753.00
2017,03,19,14,21,470.00
2017,03,19,14,22,470.00
2017,03,19,14,23,470.00
2017,03,19,14,24,470.00
2017,03,19,14,25,470.00
2017,03,19,14,26,470.00
2017,03,19,14,27,470.00
2017,03,19,14,28,470.00
2017,03,19,14,29,470.00
2017,03,19,14,30,470.00
2017,03,19,14,31,469.00
2017,03,19,14,32,469.00
2017,03,19,14,33,469.00
2017,03,19,14,34,469.00
2017,03,19,14,35,469.00
2017,03,19,14,36,469.00
2017,03,19,14,37,469.00
2017,03,19,14,38,469.00
2017,03,19,14,39,469.00
2017,03,19,14,40,469.00
2017,03,19,14,41,469.00
2017,03,19,14,42,661.00
2017,03,19,14,43,661.00
2017,03,19,14,44,661.00
2017,03,19,14,45,661.00
2017,03,19,14,46,661.00
2017,03,19,14,47,661.00
2017,03,19,14,48,661.00
2017,03,19,14,49,661.00
2017,03,19,14,50,661.00
2017,03,19,14,51,838.00
2017,03,19,14,52,838.00
2017,03,19,14,53,838.00
2017,03,19,14,54,838.00
2017,03,19,14,55,838.00
2017,03,19,14,56,838.00
2017,03,19,14,57,838.00
2017,03,19,14,58,838.00
2017,03,19,14,59,838.00
2017,03,19,15,00,838.00
2017,03,19,15,01,838.00
2017,03,19,15,02,838.00
2017,03,19,15,03,542.00
2017,03,19,15,04,542.00
2017,03,19,15,05,542.00
2017,03,19,15,06,542.00
2017,03,19,15,07,542.00
2017,03,19,15,08,542.00
2017,03,19,15,09,542.00
2017,03,19,15,10,542.00
2017,03,19,15,11,542.00
2017,03,19,15,12,1080.00
2017,03,19,15,13,1080.00
2017,03,19,15,14,1080.00
2017,03,19,15,15,1080.00
2017,03,19,15,16,1080.00
2017,03,19,15,17,1080.00
2017,03,19,15,18,1080.00
2017,03,19,15,19,1080.00
2017,03,19,15,20,1080.00
2017,03,19,15,21,1080.00
2017,03,19,15,32,353.00
2017,03,19,15,33,353.00
2017,03,19,15,34,353.00
2017,03,19,15,35,353.00
2017,03,19,15,36,353.00
2017,03,19,15,37,353.00
2017,03,19,15,38,353.00
2017,03,19,15,39,353.00
2017,03,19,15,40,353.00
2017,03,19,15,41,353.00
2017,03,19,15,42,252.00
2017,03,19,15,43,252.00
2017,03,19,15,44,252.00
2017,03,19,15,45,252.00
2017,03,19,15,46,252.00
2017,03,19,15,47,252.00
2017,03,19,15,48,252.00
2017,03,19,15,49,252.00
2017,03,19,15,50,252.00
2017,03,19,15,51,288.00
2017,03,19,15,52,288.00
2017,03,19,15,53,288.00
2017,03,19,15,54,288.00
2017,03,19,15,55,288.00
2017,03,19,15,56,288.00
2017,03,19,15,57,288.00
2017,03,19,15,58,288.00
2017,03,19,15,59,288.00
2017,03,19,16,00,288.00
2017,03,19,16,01,288.00
2017,03,19,16,02,288.00
2017,03,19,16,03,324.00
2017,03,19,16,04,324.00
2017,03,19,16,05,324.00
2017,03,19,16,06,324.00
2017,03,19,16,07,324.00
2017,03,19,16,08,324.00
2017,03,19,16,09,324.00
2017,03,19,16,10,324.00
2017,03,19,16,11,272.00
2017,03,19,16,12,272.00
2017,03,19,16,13,272.00
2017,03,19,16,14,272.00
2017,03,19,16,15,272.00
2017,03,19,16,16,272.00
2017,03,19,16,17,272.00
2017,03,19,16,18,272.00
2017,03,19,16,19,272.00
2017,03,19,16,20,272.00
2017,03,19,16,21,272.00
2017,03,19,16,22,257.00
2017,03,19,16,23,257.00
2017,03,19,16,24,257.00
2017,03,19,16,25,257.00
2017,03,19,16,26,257.00
2017,03,19,16,27,257.00
2017,03,19,16,28,257.00
2017,03,19,16,29,257.00
2017,03,19,16,30,257.00
2017,03,19,16,31,284.00
2017,03,19,16,32,284.00
2017,03,19,16,33,284.00
2017,03,19,16,34,284.00
2017,03,19,16,35,284.00
2017,03,19,16,36,284.00
2017,03,19,16,37,284.00
2017,03,19,16,38,284.00
2017,03,19,16,39,284.00
2017,03,19,16,40,284.00
2017,03,19,16,41,186.00
2017,03,19,16,42,186.00
2017,03,19,16,43,186.00
2017,03,19,16,44,186.00
2017,03,19,16,45,186.00
2017,03,19,16,46,186.00
2017,03,19,16,47,186.00
2017,03,19,16,48,186.00
2017,03,19,16,49,186.00
2017,03,19,16,50,186.00
2017,03,19,16,51,186.00
2017,03,19,16,52,164.00
2017,03,19,16,53,164.00
2017,03,19,16,54,164.00
2017,03,19,16,55,164.00
2017,03,19,16,56,164.00
2017,03,19,16,57,164.00
2017,03,19,16,58,164.00
2017,03,19,16,59,164.00
2017,03,19,17,00,164.00
2017,03,19,17,01,139.00
2017,03,19,17,02,139.00
2017,03,19,17,03,139.00
2017,03,19,17,04,139.00
2017,03,19,17,05,139.00
2017,03,19,17,06,139.00
2017,03,19,17,07,139.00
2017,03,19,17,08,139.00
2017,03,19,17,09,139.00
2017,03,19,17,10,139.00
2017,03,19,17,11,130.00
2017,03,19,17,12,130.00
2017,03,19,17,13,130.00
2017,03,19,17,14,130.00
2017,03,19,17,15,130.00
2017,03,19,17,16,130.00
2017,03,19,17,17,130.00
2017,03,19,17,18,130.00
2017,03,19,17,19,130.00
2017,03,19,17,20,130.00
2017,03,19,17,21,93.00
2017,03,19,17,22,93.00
2017,03,19,17,23,93.00
2017,03,19,17,24,93.00
2017,03,19,17,25,93.00
2017,03,19,17,26,93.00
2017,03,19,17,27,93.00
2017,03,19,17,28,93.00
2017,03,19,17,29,93.00
2017,03,19,17,30,93.00
2017,03,19,17,31,82.00
2017,03,19,17,32,82.00
2017,03,19,17,33,82.00
2017,03,19,17,34,82.00
2017,03,19,17,35,82.00
2017,03,19,17,36,82.00
2017,03,19,17,37,82.00
2017,03,19,17,38,82.00
2017,03,19,17,39,82.00
2017,03,19,17,40,82.00
2017,03,19,17,41,81.00
2017,03,19,17,42,81.00
2017,03,19,17,43,81.00
2017,03,19,17,44,81.00
2017,03,19,17,45,81.00
2017,03,19,17,46,81.00
2017,03,19,17,47,81.00
2017,03,19,17,48,81.00
2017,03,19,17,49,81.00
2017,03,19,17,50,81.00
2017,03,19,17,51,100.00
2017,03,19,17,52,100.00
2017,03,19,17,53,100.00
2017,03,19,17,54,100.00
2017,03,19,17,55,100.00
2017,03,19,17,56,100.00
2017,03,19,17,57,100.00
2017,03,19,17,58,100.00
2017,03,19,17,59,100.00
2017,03,19,18,00,100.00